Location: Bismarck
(46.7731°N, 100.8200°W)
Time: 12:18:30
(UTC-05:00)

ISS - Visible Passes

Search period start: 26 September 2016 00:00
Search period end: 06 October 2016 00:00
Orbit: 401 x 409 km, 51.6° (Epoch: 26 September)

Date Brightness Start Highest point End Pass type
(mag) Time Alt. Az. Time Alt. Az. Time Alt. Az.
28 Sep -1.4 21:15:28 10° SSW 21:16:47 20° SSW 21:16:47 20° SSW visible
29 Sep -1.8 20:24:04 10° S 20:26:29 19° SE 20:27:22 18° ESE visible
29 Sep -0.5 21:59:24 10° WSW 22:00:03 15° WSW 22:00:03 15° WSW visible
30 Sep -3.4 21:07:19 10° SW 21:10:26 66° SSE 21:10:26 66° SSE visible
01 Oct -2.7 20:15:26 10° SW 20:18:29 39° SE 20:20:39 17° E visible
01 Oct -1.0 21:51:47 10° W 21:53:20 24° W 21:53:20 24° W visible
02 Oct -3.1 20:59:30 10° WSW 21:02:44 67° NNW 21:03:26 49° NE visible
03 Oct -3.4 20:07:19 10° WSW 20:10:35 81° SSE 20:13:26 13° ENE visible
03 Oct -1.1 21:44:13 10° WNW 21:46:06 26° NW 21:46:06 26° NW visible
04 Oct -2.4 20:51:51 10° W 20:54:59 43° NNW 20:56:00 32° NNE visible
05 Oct -2.9 19:59:30 10° W 20:02:43 58° NNW 20:05:51 11° ENE visible
05 Oct -1.2 21:36:35 10° WNW 21:38:31 26° NW 21:38:31 26° NW visible
